Weather in Soldybayevo

Russia / Chuvash Republic     55°52′06″N   48°08′06″E
temp.,
°C
wind,
m/s
gust,
m/s
humid.,
%
clouds,
%
prec.,
mm/h
press.,
hPa
HPBL,
m
1 march, mon
mon100:00−18nnw349984 0.0 101752
03:00−19nnw3410082 0.1 101945
06:00−19nnw3499100 0.1 102057
09:00−17nw249799 0.1 1022141
12:00−13wnw349287 0.0 1021283
15:00−11w359391 0.0 1020321
18:00−13sw349692 0.0 101855
21:00−11sw499694 0.0 1016205
2 march, tue
tue200:00−7sw61493100 0.0 1011464
03:00−5sw81495100 1.6 1008627
06:00−2wsw81695100 1.3 1003590
09:00+1w71399100 2.6 1001633
12:000w71397100 0.3 998764
15:00+1w6119497 0.4 999706
18:00−3w5139071 0.1 999367
21:00−3wnw5119482 0.1 1000382
3 march, wed
wed300:00−5w5109594 0.1 1000237
03:00−7w499681 0.1 1000194
06:00−6wnw499587 0.1 1000282
09:00−5nw599390 0.2 1002484
12:00−4nw6890100 0.1 1003671
15:00−3nw61092100 0.3 1004791
18:00−6nw51191100 0.1 1005542
21:00−8wnw4119399 0.2 1007327
4 march, thu
thu400:00−10w599585 0.0 1006190
03:00−10w489679 0.0 1006137
06:00−10sw479670 0.0 1005109
09:00−5wsw6129185 0.1 1003581
12:00−3sw81394100 0.3 999885
15:00−1wsw91595100 1.2 9961143
18:000wsw91695100 0.7 9931020
21:000wsw81595100 1.5 993905
5 march, fri
fri500:00−1w81396100 0.9 992812
03:00−5w8168696 1.1 995779
06:00−9w7158971 0.0 999635
09:00−8wnw7129086 0.1 1003620
12:00−8wnw5890100 0.0 1007505
15:00−7w478991 0.0 1009495
18:00−12w33923 0.0 101124
21:00−14w22934 0.0 101220